Location: Krasnoyarskiy Pitomnik
(51.1333°N, 71.6167°E)
Time: 13:25:01
(UTC+00:00)

Transit 2A - Pass Details

Date: 14 April 2024
Orbit: 594 x 958 km, 66.7° (Epoch: 27 May)

Event Time Altitude Azimuth Distance (km) Brightness Sun altitude
Rises 05:00:42 0° 253° (WSW) 2,875 8.8 40.3°
Reaches altitude 10° 05:03:09 10° 265° (W) 2,006 8.0 40.6°
Maximum altitude 05:07:04 28° 326° (NW) 1,226 6.9 41.0°
Drops below altitude 10° 05:11:18 10° 26° (NNE) 2,172 8.3 41.5°
Sets 05:14:04 0° 38° (NE) 3,160 9.1 41.8°
